time,lat,lon
20070630T19:36:30 ,       38.6540 ,     -121.402
20070630T19:36:31 ,       38.6530 ,     -121.402
20070630T19:36:32 ,       38.6520 ,     -121.402
20070630T19:36:33 ,       38.6520 ,     -121.402
20070630T19:36:34 ,       38.6510 ,     -121.402
20070630T19:36:35 ,       38.6500 ,     -121.402
20070630T19:36:36 ,       38.6490 ,     -121.402
20070630T19:36:37 ,       38.6480 ,     -121.402
20070630T19:36:38 ,       38.6480 ,     -121.402
20070630T19:36:39 ,       38.6470 ,     -121.402
20070630T19:36:40 ,       38.6460 ,     -121.402
20070630T19:36:41 ,       38.6450 ,     -121.402
20070630T19:36:42 ,       38.6440 ,     -121.402
20070630T19:36:43 ,       38.6430 ,     -121.402
20070630T19:36:44 ,       38.6420 ,     -121.402
20070630T19:36:45 ,       38.6420 ,     -121.402
20070630T19:36:46 ,       38.6410 ,     -121.402
20070630T19:36:47 ,       38.6400 ,     -121.402
20070630T19:36:48 ,       38.6390 ,     -121.402
20070630T19:36:49 ,       38.6380 ,     -121.402
20070630T19:36:50 ,       38.6370 ,     -121.402
20070630T19:36:51 ,       38.6360 ,     -121.402
20070630T19:36:52 ,       38.6360 ,     -121.402
20070630T19:36:53 ,       38.6350 ,     -121.402
20070630T19:36:54 ,       38.6340 ,     -121.402
20070630T19:36:55 ,       38.6330 ,     -121.402
20070630T19:36:56 ,       38.6320 ,     -121.402
20070630T19:36:57 ,       38.6310 ,     -121.402
20070630T19:36:58 ,       38.6300 ,     -121.402
20070630T19:36:59 ,       38.6290 ,     -121.402
20070630T19:37:00 ,       38.6280 ,     -121.401
20070630T19:37:01 ,       38.6270 ,     -121.401
20070630T19:37:02 ,       38.6260 ,     -121.401
20070630T19:37:03 ,       38.6250 ,     -121.401
20070630T19:37:04 ,       38.6240 ,     -121.401
20070630T19:37:05 ,       38.6240 ,     -121.401
20070630T19:37:06 ,       38.6230 ,     -121.401
20070630T19:37:07 ,       38.6220 ,     -121.401
20070630T19:37:08 ,       38.6210 ,     -121.401
20070630T19:37:09 ,       38.6200 ,     -121.401
20070630T19:37:10 ,       38.6190 ,     -121.401
20070630T19:37:11 ,       38.6180 ,     -121.401
20070630T19:37:12 ,       38.6170 ,     -121.401
20070630T19:37:13 ,       38.6160 ,     -121.401
20070630T19:37:14 ,       38.6150 ,     -121.401
20070630T19:37:15 ,       38.6140 ,     -121.401
20070630T19:37:16 ,       38.6130 ,     -121.401
20070630T19:37:17 ,       38.6120 ,     -121.401
20070630T19:37:18 ,       38.6110 ,     -121.401
20070630T19:37:19 ,       38.6100 ,     -121.401
20070630T19:37:20 ,       38.6090 ,     -121.401
20070630T19:37:21 ,       38.6080 ,     -121.401
20070630T19:37:22 ,       38.6060 ,     -121.401
20070630T19:37:23 ,       38.6050 ,     -121.401
20070630T19:37:24 ,       38.6040 ,     -121.401
20070630T19:37:25 ,       38.6030 ,     -121.401
20070630T19:37:26 ,       38.6020 ,     -121.401
20070630T19:37:27 ,       38.6010 ,     -121.401
20070630T19:37:28 ,       38.6000 ,     -121.401
20070630T19:37:29 ,       38.5990 ,     -121.401
20070630T19:37:30 ,       38.5980 ,     -121.401
20070630T19:37:31 ,       38.5970 ,     -121.401
20070630T19:37:32 ,       38.5960 ,     -121.401
20070630T19:37:33 ,       38.5950 ,     -121.401
20070630T19:37:34 ,       38.5930 ,     -121.401
20070630T19:37:35 ,       38.5920 ,     -121.402
20070630T19:37:36 ,       38.5910 ,     -121.402
20070630T19:37:37 ,       38.5900 ,     -121.402
20070630T19:37:38 ,       38.5890 ,     -121.403
20070630T19:37:39 ,       38.5880 ,     -121.403
20070630T19:37:40 ,       38.5870 ,     -121.403
20070630T19:37:41 ,       38.5860 ,     -121.404
20070630T19:37:42 ,       38.5850 ,     -121.405
20070630T19:37:43 ,       38.5840 ,     -121.405
20070630T19:37:44 ,       38.5830 ,     -121.406
20070630T19:37:45 ,       38.5820 ,     -121.407
20070630T19:37:46 ,       38.5810 ,     -121.407
20070630T19:37:47 ,       38.5800 ,     -121.408
20070630T19:37:48 ,       38.5790 ,     -121.409
20070630T19:37:49 ,       38.5780 ,     -121.410
20070630T19:37:50 ,       38.5770 ,     -121.411
20070630T19:37:51 ,       38.5760 ,     -121.412
20070630T19:37:52 ,       38.5760 ,     -121.413
20070630T19:37:53 ,       38.5750 ,     -121.414
20070630T19:37:54 ,       38.5740 ,     -121.416
20070630T19:37:55 ,       38.5740 ,     -121.417
20070630T19:37:56 ,       38.5730 ,     -121.418
20070630T19:37:57 ,       38.5720 ,     -121.419
20070630T19:37:58 ,       38.5720 ,     -121.421
20070630T19:37:59 ,       38.5710 ,     -121.422
20070630T19:38:00 ,       38.5710 ,     -121.423
20070630T19:38:01 ,       38.5700 ,     -121.425
20070630T19:38:02 ,       38.5700 ,     -121.426
20070630T19:38:03 ,       38.5700 ,     -121.428
20070630T19:38:04 ,       38.5690 ,     -121.429
20070630T19:38:05 ,       38.5690 ,     -121.431
20070630T19:38:06 ,       38.5690 ,     -121.432
20070630T19:38:07 ,       38.5690 ,     -121.434
20070630T19:38:08 ,       38.5680 ,     -121.435
20070630T19:38:09 ,       38.5680 ,     -121.437
20070630T19:38:10 ,       38.5680 ,     -121.438
20070630T19:38:11 ,       38.5680 ,     -121.440
20070630T19:38:12 ,       38.5680 ,     -121.441
20070630T19:38:13 ,       38.5680 ,     -121.443
20070630T19:38:14 ,       38.5680 ,     -121.444
20070630T19:38:15 ,       38.5680 ,     -121.446
20070630T19:38:16 ,       38.5690 ,     -121.447
20070630T19:38:17 ,       38.5690 ,     -121.449
20070630T19:38:18 ,       38.5690 ,     -121.450
20070630T19:38:19 ,       38.5690 ,     -121.452
20070630T19:38:20 ,       38.5700 ,     -121.454
20070630T19:38:21 ,       38.5700 ,     -121.455
20070630T19:38:22 ,       38.5710 ,     -121.456
20070630T19:38:23 ,       38.5710 ,     -121.458
20070630T19:38:24 ,       38.5720 ,     -121.459
20070630T19:38:25 ,       38.5720 ,     -121.461
20070630T19:38:26 ,       38.5730 ,     -121.462
20070630T19:38:27 ,       38.5730 ,     -121.464
20070630T19:38:28 ,       38.5740 ,     -121.465
20070630T19:38:29 ,       38.5750 ,     -121.466
20070630T19:38:30 ,       38.5750 ,     -121.468
20070630T19:38:31 ,       38.5760 ,     -121.469
20070630T19:38:32 ,       38.5770 ,     -121.470
20070630T19:38:33 ,       38.5770 ,     -121.472
20070630T19:38:34 ,       38.5780 ,     -121.473
20070630T19:38:35 ,       38.5790 ,     -121.474
20070630T19:38:36 ,       38.5800 ,     -121.475
20070630T19:38:37 ,       38.5810 ,     -121.477
20070630T19:38:38 ,       38.5820 ,     -121.478
20070630T19:38:39 ,       38.5830 ,     -121.479
20070630T19:38:40 ,       38.5840 ,     -121.480
20070630T19:38:41 ,       38.5850 ,     -121.481
20070630T19:38:42 ,       38.5860 ,     -121.482
20070630T19:38:43 ,       38.5870 ,     -121.483
20070630T19:38:44 ,       38.5880 ,     -121.484
20070630T19:38:45 ,       38.5890 ,     -121.485
20070630T19:38:46 ,       38.5900 ,     -121.486
20070630T19:38:47 ,       38.5910 ,     -121.487
20070630T19:38:48 ,       38.5920 ,     -121.488
20070630T19:38:49 ,       38.5930 ,     -121.489
20070630T19:38:50 ,       38.5940 ,     -121.490
20070630T19:38:51 ,       38.5960 ,     -121.491
20070630T19:38:52 ,       38.5970 ,     -121.492
20070630T19:38:53 ,       38.5980 ,     -121.492
20070630T19:38:54 ,       38.5990 ,     -121.493
20070630T19:38:55 ,       38.6000 ,     -121.494
20070630T19:38:56 ,       38.6010 ,     -121.495
20070630T19:38:57 ,       38.6020 ,     -121.496
20070630T19:38:58 ,       38.6030 ,     -121.497
20070630T19:38:59 ,       38.6050 ,     -121.498
20070630T19:39:00 ,       38.6060 ,     -121.499
20070630T19:39:01 ,       38.6070 ,     -121.500
20070630T19:39:02 ,       38.6080 ,     -121.500
20070630T19:39:03 ,       38.6090 ,     -121.501
20070630T19:39:04 ,       38.6100 ,     -121.502
20070630T19:39:05 ,       38.6120 ,     -121.503
20070630T19:39:06 ,       38.6130 ,     -121.504
20070630T19:39:07 ,       38.6140 ,     -121.505
20070630T19:39:08 ,       38.6150 ,     -121.506
20070630T19:39:09 ,       38.6160 ,     -121.507
20070630T19:39:10 ,       38.6170 ,     -121.508
20070630T19:39:11 ,       38.6190 ,     -121.509
20070630T19:39:12 ,       38.6200 ,     -121.510
20070630T19:39:13 ,       38.6210 ,     -121.510
20070630T19:39:14 ,       38.6220 ,     -121.511
20070630T19:39:15 ,       38.6230 ,     -121.512
20070630T19:39:16 ,       38.6240 ,     -121.513
20070630T19:39:17 ,       38.6260 ,     -121.514
20070630T19:39:18 ,       38.6270 ,     -121.515
20070630T19:39:19 ,       38.6280 ,     -121.516
20070630T19:39:20 ,       38.6290 ,     -121.517
20070630T19:39:21 ,       38.6300 ,     -121.518
20070630T19:39:22 ,       38.6320 ,     -121.519
20070630T19:39:23 ,       38.6330 ,     -121.519
20070630T19:39:24 ,       38.6340 ,     -121.520
20070630T19:39:25 ,       38.6350 ,     -121.521
20070630T19:39:26 ,       38.6360 ,     -121.522
20070630T19:39:27 ,       38.6380 ,     -121.523
20070630T19:39:28 ,       38.6390 ,     -121.524
20070630T19:39:29 ,       38.6400 ,     -121.525
20070630T19:39:30 ,       38.6410 ,     -121.526
20070630T19:39:31 ,       38.6420 ,     -121.526
20070630T19:39:32 ,       38.6440 ,     -121.527
20070630T19:39:33 ,       38.6450 ,     -121.528
20070630T19:39:34 ,       38.6460 ,     -121.529
20070630T19:39:35 ,       38.6470 ,     -121.530
20070630T19:39:36 ,       38.6490 ,     -121.531
20070630T19:39:37 ,       38.6500 ,     -121.532
20070630T19:39:38 ,       38.6510 ,     -121.533
20070630T19:39:39 ,       38.6520 ,     -121.534
20070630T19:39:40 ,       38.6530 ,     -121.535
20070630T19:39:41 ,       38.6550 ,     -121.536
20070630T19:39:42 ,       38.6560 ,     -121.536
20070630T19:39:43 ,       38.6570 ,     -121.537
20070630T19:39:44 ,       38.6580 ,     -121.538
20070630T19:39:45 ,       38.6590 ,     -121.539
20070630T19:39:46 ,       38.6610 ,     -121.540
20070630T19:39:47 ,       38.6620 ,     -121.541
20070630T19:39:48 ,       38.6630 ,     -121.542
20070630T19:39:49 ,       38.6640 ,     -121.543
20070630T19:39:50 ,       38.6650 ,     -121.544
20070630T19:39:51 ,       38.6670 ,     -121.545
20070630T19:39:52 ,       38.6680 ,     -121.546
20070630T19:39:53 ,       38.6690 ,     -121.547
20070630T19:39:54 ,       38.6700 ,     -121.548
20070630T19:39:55 ,       38.6710 ,     -121.549
20070630T19:39:56 ,       38.6730 ,     -121.550
20070630T19:39:57 ,       38.6740 ,     -121.551
20070630T19:39:58 ,       38.6750 ,     -121.552
20070630T19:39:59 ,       38.6760 ,     -121.553
20070630T19:40:00 ,       38.6770 ,     -121.554
20070630T19:40:01 ,       38.6790 ,     -121.555
20070630T19:40:02 ,       38.6800 ,     -121.556
20070630T19:40:03 ,       38.6810 ,     -121.557
20070630T19:40:04 ,       38.6820 ,     -121.558
20070630T19:40:05 ,       38.6830 ,     -121.559
20070630T19:40:06 ,       38.6850 ,     -121.560
20070630T19:40:07 ,       38.6860 ,     -121.561
20070630T19:40:08 ,       38.6870 ,     -121.562
20070630T19:40:09 ,       38.6880 ,     -121.563
20070630T19:40:10 ,       38.6890 ,     -121.564
20070630T19:40:11 ,       38.6910 ,     -121.565
20070630T19:40:12 ,       38.6920 ,     -121.566
20070630T19:40:13 ,       38.6930 ,     -121.567
20070630T19:40:14 ,       38.6940 ,     -121.569
20070630T19:40:15 ,       38.6950 ,     -121.570
20070630T19:40:16 ,       38.6970 ,     -121.571
20070630T19:40:17 ,       38.6980 ,     -121.572
20070630T19:40:18 ,       38.6990 ,     -121.573
20070630T19:40:19 ,       38.7000 ,     -121.574
20070630T19:40:20 ,       38.7010 ,     -121.575
20070630T19:40:21 ,       38.7020 ,     -121.577
20070630T19:40:22 ,       38.7040 ,     -121.578
20070630T19:40:23 ,       38.7050 ,     -121.579
20070630T19:40:24 ,       38.7060 ,     -121.580
20070630T19:40:25 ,       38.7070 ,     -121.581
20070630T19:40:26 ,       38.7080 ,     -121.582
20070630T19:40:27 ,       38.7100 ,     -121.584
20070630T19:40:28 ,       38.7110 ,     -121.585
20070630T19:40:29 ,       38.7120 ,     -121.586
20070630T19:40:30 ,       38.7130 ,     -121.587
20070630T19:40:31 ,       38.7140 ,     -121.588
20070630T19:40:32 ,       38.7160 ,     -121.589
20070630T19:40:33 ,       38.7170 ,     -121.591
20070630T19:40:34 ,       38.7180 ,     -121.592
20070630T19:40:35 ,       38.7190 ,     -121.593
20070630T19:40:36 ,       38.7210 ,     -121.594
20070630T19:40:37 ,       38.7220 ,     -121.595
20070630T19:40:38 ,       38.7230 ,     -121.596
20070630T19:40:39 ,       38.7240 ,     -121.598
20070630T19:40:40 ,       38.7260 ,     -121.599
20070630T19:40:41 ,       38.7270 ,     -121.600
20070630T19:40:42 ,       38.7280 ,     -121.601
20070630T19:40:43 ,       38.7290 ,     -121.602
20070630T19:40:44 ,       38.7310 ,     -121.604
20070630T19:40:45 ,       38.7320 ,     -121.605
20070630T19:40:46 ,       38.7330 ,     -121.606
20070630T19:40:47 ,       38.7340 ,     -121.607
20070630T19:40:48 ,       38.7360 ,     -121.608
20070630T19:40:49 ,       38.7370 ,     -121.610
20070630T19:40:50 ,       38.7380 ,     -121.611
20070630T19:40:51 ,       38.7390 ,     -121.612
20070630T19:40:52 ,       38.7410 ,     -121.613
20070630T19:40:53 ,       38.7420 ,     -121.614
20070630T19:40:54 ,       38.7430 ,     -121.616
20070630T19:40:55 ,       38.7440 ,     -121.617
20070630T19:40:56 ,       38.7460 ,     -121.618
20070630T19:40:57 ,       38.7470 ,     -121.619
20070630T19:40:58 ,       38.7480 ,     -121.620
20070630T19:40:59 ,       38.7500 ,     -121.622
20070630T19:41:00 ,       38.7510 ,     -121.623
20070630T19:41:01 ,       38.7520 ,     -121.624
20070630T19:41:02 ,       38.7530 ,     -121.625
20070630T19:41:03 ,       38.7550 ,     -121.626
20070630T19:41:04 ,       38.7560 ,     -121.628
20070630T19:41:05 ,       38.7570 ,     -121.629
20070630T19:41:06 ,       38.7580 ,     -121.630
20070630T19:41:07 ,       38.7600 ,     -121.631
20070630T19:41:08 ,       38.7610 ,     -121.633
20070630T19:41:09 ,       38.7620 ,     -121.634
20070630T19:41:10 ,       38.7630 ,     -121.635
20070630T19:41:11 ,       38.7650 ,     -121.636
20070630T19:41:12 ,       38.7660 ,     -121.637
20070630T19:41:13 ,       38.7670 ,     -121.639
20070630T19:41:14 ,       38.7680 ,     -121.640
20070630T19:41:15 ,       38.7700 ,     -121.641
20070630T19:41:16 ,       38.7710 ,     -121.642
20070630T19:41:17 ,       38.7720 ,     -121.643
20070630T19:41:18 ,       38.7730 ,     -121.644
20070630T19:41:19 ,       38.7750 ,     -121.646
20070630T19:41:20 ,       38.7760 ,     -121.647
20070630T19:41:21 ,       38.7770 ,     -121.648
20070630T19:41:22 ,       38.7780 ,     -121.649
20070630T19:41:23 ,       38.7800 ,     -121.650
20070630T19:41:24 ,       38.7810 ,     -121.652
20070630T19:41:25 ,       38.7820 ,     -121.653
20070630T19:41:26 ,       38.7830 ,     -121.654
20070630T19:41:27 ,       38.7850 ,     -121.655
20070630T19:41:28 ,       38.7860 ,     -121.656
20070630T19:41:29 ,       38.7870 ,     -121.657
20070630T19:41:30 ,       38.7880 ,     -121.658
20070630T19:41:31 ,       38.7900 ,     -121.660
20070630T19:41:32 ,       38.7910 ,     -121.661
20070630T19:41:33 ,       38.7920 ,     -121.662
20070630T19:41:34 ,       38.7930 ,     -121.663
20070630T19:41:35 ,       38.7950 ,     -121.664
20070630T19:41:36 ,       38.7960 ,     -121.665
20070630T19:41:37 ,       38.7970 ,     -121.667
20070630T19:41:38 ,       38.7980 ,     -121.668
20070630T19:41:39 ,       38.7990 ,     -121.669
20070630T19:41:40 ,       38.8010 ,     -121.670
20070630T19:41:41 ,       38.8020 ,     -121.671
20070630T19:41:42 ,       38.8030 ,     -121.673
20070630T19:41:43 ,       38.8040 ,     -121.674
20070630T19:41:44 ,       38.8050 ,     -121.675
20070630T19:41:45 ,       38.8060 ,     -121.676
20070630T19:41:46 ,       38.8080 ,     -121.677
20070630T19:41:47 ,       38.8090 ,     -121.679
20070630T19:41:48 ,       38.8100 ,     -121.680
20070630T19:41:49 ,       38.8110 ,     -121.681
20070630T19:41:50 ,       38.8120 ,     -121.682
20070630T19:41:51 ,       38.8130 ,     -121.684
20070630T19:41:52 ,       38.8150 ,     -121.685
20070630T19:41:53 ,       38.8160 ,     -121.686
20070630T19:41:54 ,       38.8170 ,     -121.687
20070630T19:41:55 ,       38.8180 ,     -121.689
20070630T19:41:56 ,       38.8190 ,     -121.690
20070630T19:41:57 ,       38.8200 ,     -121.691
20070630T19:41:58 ,       38.8220 ,     -121.692
20070630T19:41:59 ,       38.8230 ,     -121.694
20070630T19:42:00 ,       38.8240 ,     -121.695
20070630T19:42:01 ,       38.8250 ,     -121.696
20070630T19:42:02 ,       38.8260 ,     -121.698
20070630T19:42:03 ,       38.8270 ,     -121.699
20070630T19:42:04 ,       38.8280 ,     -121.700
20070630T19:42:05 ,       38.8300 ,     -121.702
20070630T19:42:06 ,       38.8310 ,     -121.703
20070630T19:42:07 ,       38.8320 ,     -121.704
20070630T19:42:08 ,       38.8330 ,     -121.706
20070630T19:42:09 ,       38.8340 ,     -121.707
20070630T19:42:10 ,       38.8350 ,     -121.708
20070630T19:42:11 ,       38.8360 ,     -121.710
20070630T19:42:12 ,       38.8380 ,     -121.711
20070630T19:42:13 ,       38.8390 ,     -121.712
20070630T19:42:14 ,       38.8400 ,     -121.714
20070630T19:42:15 ,       38.8410 ,     -121.715
20070630T19:42:16 ,       38.8420 ,     -121.717
20070630T19:42:17 ,       38.8430 ,     -121.718
20070630T19:42:18 ,       38.8440 ,     -121.719
20070630T19:42:19 ,       38.8460 ,     -121.721
20070630T19:42:20 ,       38.8470 ,     -121.722
20070630T19:42:21 ,       38.8480 ,     -121.724
20070630T19:42:22 ,       38.8490 ,     -121.725
20070630T19:42:23 ,       38.8500 ,     -121.727
20070630T19:42:24 ,       38.8510 ,     -121.728
20070630T19:42:25 ,       38.8520 ,     -121.730
20070630T19:42:26 ,       38.8540 ,     -121.731
20070630T19:42:27 ,       38.8550 ,     -121.732
20070630T19:42:28 ,       38.8560 ,     -121.734
20070630T19:42:29 ,       38.8570 ,     -121.736
20070630T19:42:30 ,       38.8580 ,     -121.737
20070630T19:42:31 ,       38.8590 ,     -121.739
20070630T19:42:32 ,       38.8600 ,     -121.740
20070630T19:42:33 ,       38.8610 ,     -121.742
20070630T19:42:34 ,       38.8630 ,     -121.743
20070630T19:42:35 ,       38.8640 ,     -121.745
20070630T19:42:36 ,       38.8650 ,     -121.746
20070630T19:42:37 ,       38.8660 ,     -121.748
20070630T19:42:38 ,       38.8670 ,     -121.750
20070630T19:42:39 ,       38.8680 ,     -121.751
20070630T19:42:40 ,       38.8690 ,     -121.753
20070630T19:42:41 ,       38.8700 ,     -121.755
20070630T19:42:42 ,       38.8710 ,     -121.756
20070630T19:42:43 ,       38.8720 ,     -121.758
20070630T19:42:44 ,       38.8730 ,     -121.760
20070630T19:42:45 ,       38.8740 ,     -121.761
20070630T19:42:46 ,       38.8760 ,     -121.763
20070630T19:42:47 ,       38.8770 ,     -121.765
20070630T19:42:48 ,       38.8780 ,     -121.766
20070630T19:42:49 ,       38.8790 ,     -121.768
20070630T19:42:50 ,       38.8800 ,     -121.770
20070630T19:42:51 ,       38.8810 ,     -121.772
20070630T19:42:52 ,       38.8820 ,     -121.773
20070630T19:42:53 ,       38.8830 ,     -121.775
20070630T19:42:54 ,       38.8840 ,     -121.777
20070630T19:42:55 ,       38.8850 ,     -121.779
20070630T19:42:56 ,       38.8860 ,     -121.780
20070630T19:42:57 ,       38.8870 ,     -121.782
20070630T19:42:58 ,       38.8880 ,     -121.784
20070630T19:42:59 ,       38.8890 ,     -121.786
20070630T19:43:00 ,       38.8900 ,     -121.788
20070630T19:43:01 ,       38.8910 ,     -121.789
20070630T19:43:02 ,       38.8920 ,     -121.791
20070630T19:43:03 ,       38.8930 ,     -121.793
20070630T19:43:04 ,       38.8940 ,     -121.795
20070630T19:43:05 ,       38.8950 ,     -121.797
20070630T19:43:06 ,       38.8960 ,     -121.799
20070630T19:43:07 ,       38.8970 ,     -121.800
20070630T19:43:08 ,       38.8980 ,     -121.802
20070630T19:43:09 ,       38.8990 ,     -121.804
20070630T19:43:10 ,       38.9000 ,     -121.806
20070630T19:43:11 ,       38.9010 ,     -121.808
20070630T19:43:12 ,       38.9020 ,     -121.810
20070630T19:43:13 ,       38.9030 ,     -121.812
20070630T19:43:14 ,       38.9040 ,     -121.814
20070630T19:43:15 ,       38.9050 ,     -121.815
20070630T19:43:16 ,       38.9060 ,     -121.817
20070630T19:43:17 ,       38.9070 ,     -121.819
20070630T19:43:18 ,       38.9080 ,     -121.821
20070630T19:43:19 ,       38.9090 ,     -121.823
20070630T19:43:20 ,       38.9090 ,     -121.825
20070630T19:43:21 ,       38.9100 ,     -121.827
20070630T19:43:22 ,       38.9110 ,     -121.829
20070630T19:43:23 ,       38.9120 ,     -121.831
20070630T19:43:24 ,       38.9130 ,     -121.833
20070630T19:43:25 ,       38.9140 ,     -121.835
20070630T19:43:26 ,       38.9150 ,     -121.837
20070630T19:43:27 ,       38.9160 ,     -121.839
20070630T19:43:28 ,       38.9170 ,     -121.840
20070630T19:43:29 ,       38.9180 ,     -121.842
20070630T19:43:30 ,       38.9190 ,     -121.844
20070630T19:43:31 ,       38.9190 ,     -121.846
20070630T19:43:32 ,       38.9200 ,     -121.848
20070630T19:43:33 ,       38.9210 ,     -121.850
20070630T19:43:34 ,       38.9220 ,     -121.852
20070630T19:43:35 ,       38.9230 ,     -121.854
20070630T19:43:36 ,       38.9240 ,     -121.856
20070630T19:43:37 ,       38.9250 ,     -121.858
20070630T19:43:38 ,       38.9260 ,     -121.860
20070630T19:43:39 ,       38.9260 ,     -121.862
20070630T19:43:40 ,       38.9270 ,     -121.864
20070630T19:43:41 ,       38.9280 ,     -121.866
20070630T19:43:42 ,       38.9290 ,     -121.868
20070630T19:43:43 ,       38.9300 ,     -121.870
20070630T19:43:44 ,       38.9310 ,     -121.872
20070630T19:43:45 ,       38.9320 ,     -121.874
20070630T19:43:46 ,       38.9330 ,     -121.876
20070630T19:43:47 ,       38.9340 ,     -121.878
20070630T19:43:48 ,       38.9340 ,     -121.880
20070630T19:43:49 ,       38.9350 ,     -121.882
20070630T19:43:50 ,       38.9360 ,     -121.884
20070630T19:43:51 ,       38.9370 ,     -121.886
20070630T19:43:52 ,       38.9380 ,     -121.888
20070630T19:43:53 ,       38.9390 ,     -121.890
20070630T19:43:54 ,       38.9400 ,     -121.892
20070630T19:43:55 ,       38.9410 ,     -121.894
20070630T19:43:56 ,       38.9410 ,     -121.896
20070630T19:43:57 ,       38.9420 ,     -121.898
20070630T19:43:58 ,       38.9430 ,     -121.900
20070630T19:43:59 ,       38.9440 ,     -121.902
20070630T19:44:00 ,       38.9450 ,     -121.904
20070630T19:44:01 ,       38.9460 ,     -121.906
20070630T19:44:02 ,       38.9470 ,     -121.908
20070630T19:44:03 ,       38.9480 ,     -121.910
20070630T19:44:04 ,       38.9490 ,     -121.912
20070630T19:44:05 ,       38.9500 ,     -121.914
20070630T19:44:06 ,       38.9500 ,     -121.916
20070630T19:44:07 ,       38.9510 ,     -121.918
20070630T19:44:08 ,       38.9520 ,     -121.919
20070630T19:44:09 ,       38.9530 ,     -121.921
20070630T19:44:10 ,       38.9540 ,     -121.923
20070630T19:44:11 ,       38.9550 ,     -121.925
20070630T19:44:12 ,       38.9560 ,     -121.927
20070630T19:44:13 ,       38.9570 ,     -121.929
20070630T19:44:14 ,       38.9580 ,     -121.931
20070630T19:44:15 ,       38.9590 ,     -121.933
20070630T19:44:16 ,       38.9600 ,     -121.935
20070630T19:44:17 ,       38.9610 ,     -121.937
20070630T19:44:18 ,       38.9620 ,     -121.939
20070630T19:44:19 ,       38.9630 ,     -121.941
20070630T19:44:20 ,       38.9640 ,     -121.943
20070630T19:44:21 ,       38.9650 ,     -121.945
20070630T19:44:22 ,       38.9660 ,     -121.947
20070630T19:44:23 ,       38.9670 ,     -121.949
20070630T19:44:24 ,       38.9680 ,     -121.951
20070630T19:44:25 ,       38.9690 ,     -121.953
20070630T19:44:26 ,       38.9700 ,     -121.955
20070630T19:44:27 ,       38.9710 ,     -121.957
20070630T19:44:28 ,       38.9720 ,     -121.959
20070630T19:44:29 ,       38.9730 ,     -121.961
20070630T19:44:30 ,       38.9740 ,     -121.962
20070630T19:44:31 ,       38.9750 ,     -121.964
20070630T19:44:32 ,       38.9760 ,     -121.966
20070630T19:44:33 ,       38.9770 ,     -121.968
20070630T19:44:34 ,       38.9780 ,     -121.970
20070630T19:44:35 ,       38.9800 ,     -121.972
20070630T19:44:36 ,       38.9810 ,     -121.974
20070630T19:44:37 ,       38.9820 ,     -121.976
20070630T19:44:38 ,       38.9830 ,     -121.977